When you browse on this site, cookies collect data to enhance your experience and personalize the content and advertising you see.
Visit our Privacy Policy to learn more. By continuing to use the site, you agree to this use of cookies and data.
  • Em Portugal
  • Lista de países
  • Para 7 dias
  • Temperatura da água
  • Mapas de satélite
  • Mapa do tempo
  • Widgets de tempo
  • user-avatar
    Iniciar Sessão

    Previsão horária em Chrzastowo

    Hoje, 19 Fevereiro, Terça-feira

    Tempo Temperatura Precipitação Vento Pressão Humidade
    00:00 +3°C° 0 mm 2 m/s 747 mmHg 84%
    01:00 +3°C° 0 mm 2 m/s 747 mmHg 85%
    02:00 +3°C° 0 mm 2 m/s 747 mmHg 85%
    03:00 +1°C° 0 mm 3 m/s 746 mmHg 86%
    04:00 +1°C° 0 mm 3 m/s 746 mmHg 87%
    05:00 +1°C° 0 mm 3 m/s 745 mmHg 87%
    06:00 +1°C° 0 mm 3 m/s 745 mmHg 87%
    07:00 +1°C° 0 mm 3 m/s 745 mmHg 88%
    08:00 +1°C° 0 mm 4 m/s 745 mmHg 84%
    09:00 +3°C° 0 mm 4 m/s 744 mmHg 81%
    10:00 +5°C° 0 mm 5 m/s 744 mmHg 78%
    11:00 +6°C° 0 mm 5 m/s 744 mmHg 75%
    12:00 +7°C° 0 mm 5 m/s 744 mmHg 73%
    13:00 +8°C° 0 mm 6 m/s 744 mmHg 70%
    14:00 +7°C° 0.2 mm 5 m/s 744 mmHg 75%
    15:00 +6°C° 0.2 mm 5 m/s 744 mmHg 79%
    16:00 +6°C° 0.2 mm 5 m/s 744 mmHg 83%
    17:00 +6°C° 0.1 mm 5 m/s 745 mmHg 82%
    18:00 +5°C° 0.1 mm 5 m/s 745 mmHg 81%
    19:00 +5°C° 0.1 mm 5 m/s 745 mmHg 79%
    20:00 +5°C° 0 mm 5 m/s 745 mmHg 81%
    21:00 +3°C° 0 mm 5 m/s 745 mmHg 82%
    22:00 +3°C° 0 mm 5 m/s 744 mmHg 84%
    23:00 +3°C° 0 mm 5 m/s 745 mmHg 83%

    Amanhã, 20 Fevereiro, Quarta-feira

    Tempo Temperatura Precipitação Vento Pressão Humidade
    00:00 +3°C° 0 mm 5 m/s 745 mmHg 83%
    01:00 +3°C° 0 mm 6 m/s 745 mmHg 82%
    02:00 +3°C° 0.1 mm 6 m/s 745 mmHg 82%
    03:00 +3°C° 0.1 mm 6 m/s 745 mmHg 81%
    04:00 +2°C° 0.1 mm 6 m/s 745 mmHg 81%
    05:00 +2°C° 0.1 mm 6 m/s 745 mmHg 80%
    06:00 +2°C° 0.1 mm 6 m/s 746 mmHg 79%
    07:00 +2°C° 0.1 mm 6 m/s 746 mmHg 78%
    08:00 +2°C° 0.1 mm 6 m/s 746 mmHg 77%
    09:00 +3°C° 0.1 mm 6 m/s 747 mmHg 76%
    10:00 +3°C° 0.1 mm 7 m/s 747 mmHg 74%
    11:00 +3°C° 0 mm 7 m/s 748 mmHg 72%
    12:00 +3°C° 0 mm 6 m/s 748 mmHg 71%
    13:00 +4°C° 0 mm 6 m/s 749 mmHg 69%
    14:00 +4°C° 0 mm 6 m/s 749 mmHg 69%
    15:00 +4°C° 0 mm 6 m/s 749 mmHg 70%
    16:00 +5°C° 0 mm 5 m/s 749 mmHg 70%
    17:00 +3°C° 0 mm 5 m/s 750 mmHg 75%
    18:00 +4°C° 0 mm 4 m/s 750 mmHg 79%
    19:00 +4°C° 0 mm 3 m/s 750 mmHg 83%
    20:00 +3°C° 0 mm 3 m/s 751 mmHg 86%
    21:00 +4°C° 0 mm 2 m/s 751 mmHg 89%
    22:00 +3°C° 0 mm 2 m/s 751 mmHg 92%
    23:00 +4°C° 0.2 mm 2 m/s 751 mmHg 92%

    Depois de amanhã, 21 Fevereiro, Quinta-feira

    Tempo Temperatura Precipitação Vento Pressão Humidade
    00:00 +4°C° 0.2 mm 2 m/s 751 mmHg 93%
    01:00 +4°C° 0.2 mm 3 m/s 751 mmHg 94%
    02:00 +4°C° 0.2 mm 3 m/s 750 mmHg 94%
    03:00 +4°C° 0.2 mm 3 m/s 750 mmHg 93%
    04:00 +4°C° 0.2 mm 3 m/s 750 mmHg 93%
    05:00 +4°C° 0.2 mm 4 m/s 750 mmHg 93%
    06:00 +4°C° 0.2 mm 4 m/s 749 mmHg 93%
    07:00 +4°C° 0.2 mm 4 m/s 749 mmHg 92%
    08:00 +4°C° 0.4 mm 4 m/s 749 mmHg 92%
    09:00 +4°C° 0.4 mm 4 m/s 749 mmHg 92%
    10:00 +5°C° 0.4 mm 5 m/s 749 mmHg 92%
    11:00 +5°C° 0.6 mm 5 m/s 749 mmHg 90%
    12:00 +5°C° 0.6 mm 5 m/s 749 mmHg 89%
    13:00 +5°C° 0.6 mm 5 m/s 749 mmHg 88%
    14:00 +5°C° 0.1 mm 5 m/s 749 mmHg 88%
    15:00 +6°C° 0.1 mm 5 m/s 749 mmHg 89%
    16:00 +6°C° 0.1 mm 4 m/s 749 mmHg 89%
    17:00 +5°C° 0 mm 4 m/s 750 mmHg 90%
    18:00 +5°C° 0 mm 4 m/s 750 mmHg 91%
    19:00 +5°C° 0 mm 4 m/s 751 mmHg 92%
    20:00 +5°C° 0.1 mm 4 m/s 751 mmHg 92%
    21:00 +5°C° 0.1 mm 4 m/s 752 mmHg 93%
    22:00 +5°C° 0.1 mm 4 m/s 752 mmHg 93%
    23:00 +3°C° 0.4 mm 4 m/s 753 mmHg 90%

    22 Fevereiro, Sexta-feira

    Tempo Temperatura Precipitação Vento Pressão Humidade
    00:00 +1°C° 0.4 mm 4 m/s 754 mmHg 88%
    01:00 0°C° 0.4 mm 4 m/s 755 mmHg 85%
    02:00 0°C° 0 mm 4 m/s 756 mmHg 83%
    03:00 -1°C° 0 mm 4 m/s 756 mmHg 81%
    04:00 -1°C° 0 mm 4 m/s 757 mmHg 79%
    05:00 -2°C° 0 mm 4 m/s 758 mmHg 78%
    06:00 -2°C° 0 mm 4 m/s 760 mmHg 76%
    07:00 -2°C° 0 mm 4 m/s 761 mmHg 75%
    08:00 -2°C° 0 mm 4 m/s 761 mmHg 71%
    09:00 -2°C° 0 mm 4 m/s 762 mmHg 68%
    10:00 -2°C° 0 mm 4 m/s 763 mmHg 64%
    11:00 -1°C° 0 mm 4 m/s 764 mmHg 60%
    12:00 -1°C° 0 mm 4 m/s 764 mmHg 56%
    13:00 0°C° 0 mm 4 m/s 765 mmHg 52%
    14:00 0°C° 0 mm 3 m/s 765 mmHg 51%
    15:00 0°C° 0 mm 3 m/s 766 mmHg 50%
    16:00 0°C° 0 mm 3 m/s 766 mmHg 48%
    17:00 -1°C° 0 mm 2 m/s 766 mmHg 52%
    18:00 -2°C° 0 mm 2 m/s 767 mmHg 56%
    19:00 -3°C° 0 mm 2 m/s 767 mmHg 60%
    20:00 -1°C° 0 mm 1 m/s 767 mmHg 59%
    21:00 -1°C° 0 mm 1 m/s 767 mmHg 59%
    22:00 -1°C° 0 mm 1 m/s 768 mmHg 59%
    23:00 -1°C° 0 mm 1 m/s 768 mmHg 58%

    23 Fevereiro, Sábado

    Tempo Temperatura Precipitação Vento Pressão Humidade
    00:00 -1°C° 0 mm 1 m/s 768 mmHg 56%
    01:00 -1°C° 0 mm 1 m/s 768 mmHg 55%
    02:00 -1°C° 0 mm 1 m/s 767 mmHg 54%
    03:00 -3°C° 0 mm 2 m/s 767 mmHg 54%
    04:00 -3°C° 0 mm 2 m/s 767 mmHg 53%
    05:00 -3°C° 0 mm 2 m/s 767 mmHg 53%
    06:00 -3°C° 0 mm 2 m/s 766 mmHg 53%
    07:00 -3°C° 0 mm 2 m/s 766 mmHg 54%
    08:00 -2°C° 0 mm 2 m/s 766 mmHg 50%
    09:00 -1°C° 0 mm 3 m/s 766 mmHg 46%
    10:00 0°C° 0 mm 3 m/s 766 mmHg 42%
    11:00 +1°C° 0 mm 3 m/s 766 mmHg 42%
    12:00 +2°C° 0 mm 3 m/s 765 mmHg 42%
    13:00 +2°C° 0 mm 3 m/s 765 mmHg 42%
    14:00 +2°C° 0 mm 3 m/s 765 mmHg 46%
    15:00 +2°C° 0 mm 3 m/s 764 mmHg 50%
    16:00 +2°C° 0 mm 3 m/s 764 mmHg 55%
    17:00 +2°C° 0 mm 2 m/s 764 mmHg 61%
    18:00 +1°C° 0 mm 2 m/s 763 mmHg 68%
    19:00 -1°C° 0 mm 2 m/s 763 mmHg 75%
    20:00 +1°C° 0 mm 2 m/s 763 mmHg 79%
    21:00 +1°C° 0 mm 2 m/s 763 mmHg 83%
    22:00 +2°C° 0 mm 1 m/s 763 mmHg 87%
    23:00 +1°C° 0 mm 2 m/s 763 mmHg 90%

    24 Fevereiro, Domingo

    Tempo Temperatura Precipitação Vento Pressão Humidade
    00:00 +1°C° 0 mm 2 m/s 763 mmHg 92%
    01:00 +1°C° 0 mm 2 m/s 763 mmHg 95%
    02:00 +2°C° 0 mm 1 m/s 763 mmHg 96%
    03:00 +2°C° 0 mm 1 m/s 763 mmHg 96%
    04:00 +2°C° 0 mm 1 m/s 763 mmHg 97%
    05:00 +2°C° 0 mm 1 m/s 763 mmHg 97%
    06:00 +2°C° 0 mm 1 m/s 763 mmHg 97%
    07:00 +3°C° 0 mm 1 m/s 763 mmHg 97%
    08:00 +3°C° 0 mm 1 m/s 764 mmHg 95%
    09:00 +4°C° 0 mm 1 m/s 764 mmHg 93%
    10:00 +4°C° 0 mm 1 m/s 764 mmHg 92%
    11:00 +5°C° 0 mm 1 m/s 764 mmHg 91%
    12:00 +4°C° 0 mm 2 m/s 764 mmHg 91%
    13:00 +4°C° 0 mm 2 m/s 764 mmHg 90%
    14:00 +4°C° 0 mm 2 m/s 763 mmHg 91%
    15:00 +4°C° 0 mm 2 m/s 763 mmHg 91%
    16:00 +4°C° 0 mm 2 m/s 763 mmHg 92%
    17:00 +4°C° 0 mm 2 m/s 762 mmHg 93%
    18:00 +3°C° 0 mm 2 m/s 762 mmHg 94%
    19:00 +3°C° 0 mm 2 m/s 762 mmHg 95%
    20:00 +3°C° 0 mm 2 m/s 762 mmHg 95%
    21:00 +1°C° 0 mm 3 m/s 761 mmHg 95%
    22:00 +1°C° 0 mm 3 m/s 761 mmHg 95%
    23:00 +1°C° 0 mm 3 m/s 761 mmHg 95%
    Mostrar mais